Weather History for Batman, Turkey

Change the Weather History Date:

Tuesday, July 31, 2012

  Actual Average (LTCC) Record (LTCC)
Temperature  
Mean Temperature 88 °F -  
Max Temperature 100 °F 100 °F 111 °F (2000)
Min Temperature 77 °F 72 °F 64 °F (2013)
Cooling Degree Days 24    
Growing Degree Days 38 (Base 50)    
Moisture  
Dew Point 56 °F    
Average Humidity 35    
Maximum Humidity 57    
Minimum Humidity 16    
Precipitation  
Precipitation 0.00 in - - ()
Sea Level Pressure  
Sea Level Pressure 29.58 in    
Wind  
Wind Speed 8 mph ()    
Max Wind Speed 17 mph    
Max Gust Speed -    
Visibility 6.2 miles    
Events Rain , Thunderstorm    
Averages and records for this station are not official NWS values.
T = Trace of Precipitation, MM = Missing Value Source: Averaged Metar Reports

Daily Weather History Graph

Daily Weather History Graph

Search for Another Location

Airport:

Trip Planner

Search our weather history database for the weather conditions in past years. The results will help you decide how hot, cold, wet, or windy it might be!

Date:

Astronomy

Jul. 31, 2012 Rise Set
Actual Time 5:17 AM EEST 7:25 PM EEST
Civil Twilight 4:48 AM EEST 7:54 PM EEST
Nautical Twilight 4:12 AM EEST 8:30 PM EEST
Astronomical Twilight 3:34 AM EEST 9:08 PM EEST
Moon 5:57 PM EEST (7/31) 3:15 AM EEST (7/31)
Length of Visible Light 15h 05m
Length of Day
14h 07m
Waxing Gibbous, 96% of the Moon is Illuminated
Jul 31
Waxing Gibbous
Aug 2
Full
Aug 9
Last Quarter
Aug 17
New
Aug 24
First Quarter

Hourly Weather History & Observations

Time (EEST) Temp. Heat Index Dew Point Humidity Pressure Visibility Wind Dir Wind Speed Gust Speed Precip Events Conditions
12:20 AM 82.4 °F - 50.0 °F 32% 29.62 in 6.2 mi North 12.7 mph - N/A   Scattered Clouds
12:50 AM 78.8 °F - 53.6 °F 42% 29.68 in 6.2 mi SSE 11.5 mph - N/A Thunderstorm Thunderstorm
1:20 AM 80.6 °F 80.3 °F 53.6 °F 39% 29.71 in 6.2 mi South 6.9 mph - N/A Thunderstorm Thunderstorm
1:50 AM 80.6 °F 80.5 °F 55.4 °F 42% 29.68 in 6.2 mi East 6.9 mph - N/A   Scattered Clouds
2:20 AM 78.8 °F - 57.2 °F 47% 29.68 in 6.2 mi Variable 4.6 mph - N/A   Scattered Clouds
3:20 AM 80.6 °F 80.5 °F 55.4 °F 42% 29.68 in 6.2 mi East 17.3 mph - N/A Rain , Thunderstorm Light Thunderstorms and Rain
3:50 AM 78.8 °F - 59.0 °F 51% 29.65 in 6.2 mi East 15.0 mph - N/A Rain , Thunderstorm Light Thunderstorms and Rain
4:20 AM 77.0 °F - 57.2 °F 50% 29.65 in 6.2 mi ENE 11.5 mph - N/A   Scattered Clouds
4:50 AM 78.8 °F - 55.4 °F 44% 29.65 in 6.2 mi NE 16.1 mph - N/A   Mostly Cloudy
5:20 AM 77.0 °F - 60.8 °F 57% 29.65 in 6.2 mi WSW 8.1 mph - N/A   Mostly Cloudy
5:50 AM 77.0 °F - 59.0 °F 54% 29.68 in 6.2 mi Variable 3.5 mph - N/A   Mostly Cloudy
6:20 AM 77.0 °F - 59.0 °F 54% 29.68 in 6.2 mi North 3.5 mph - N/A   Mostly Cloudy
7:20 AM 80.6 °F 80.8 °F 57.2 °F 45% 29.65 in 6.2 mi SSE 8.1 mph - N/A   Mostly Cloudy
7:50 AM 82.4 °F 81.7 °F 55.4 °F 39% 29.65 in 6.2 mi Variable 5.8 mph - N/A   Mostly Cloudy
8:20 AM 82.4 °F 82.0 °F 57.2 °F 42% 29.65 in 6.2 mi NW 3.5 mph - N/A   Mostly Cloudy
8:50 AM 84.2 °F 84.4 °F 60.8 °F 45% 29.65 in 6.2 mi North 5.8 mph - N/A   Mostly Cloudy
9:20 AM 86.0 °F 86.1 °F 60.8 °F 43% 29.62 in 6.2 mi NNW 10.4 mph - N/A   Mostly Cloudy
9:50 AM 86.0 °F 85.4 °F 59.0 °F 40% 29.62 in 6.2 mi North 10.4 mph - N/A   Mostly Cloudy
10:20 AM 86.0 °F 84.5 °F 55.4 °F 35% 29.62 in 6.2 mi North 12.7 mph - N/A   Mostly Cloudy
10:50 AM 89.6 °F 88.1 °F 57.2 °F 33% 29.62 in 6.2 mi North 11.5 mph - N/A   Mostly Cloudy
11:20 AM 91.4 °F 89.9 °F 57.2 °F 31% 29.59 in 6.2 mi North 9.2 mph - N/A   Mostly Cloudy
11:50 AM 95.0 °F 92.7 °F 53.6 °F 25% 29.59 in 6.2 mi North 9.2 mph - N/A   Scattered Clouds
12:20 PM 95.0 °F - 51.8 °F 23% 29.59 in 6.2 mi NNW 9.2 mph - N/A   Partly Cloudy
12:50 PM 96.8 °F - 51.8 °F 22% 29.59 in 6.2 mi NNW 8.1 mph - N/A   Partly Cloudy
1:20 PM 96.8 °F - 50.0 °F 20% 29.56 in 6.2 mi NNW 6.9 mph - N/A   Partly Cloudy
1:50 PM 100.4 °F - 46.4 °F 16% 29.56 in 6.2 mi North 6.9 mph - N/A   Partly Cloudy
2:20 PM 100.4 °F - 46.4 °F 16% 29.53 in 6.2 mi Variable 5.8 mph - N/A   Partly Cloudy
2:50 PM 98.6 °F 97.6 °F 57.2 °F 25% 29.53 in 6.2 mi SW 11.5 mph - N/A   Partly Cloudy
3:20 PM 98.6 °F 98.5 °F 59.0 °F 27% 29.53 in 6.2 mi SSW 11.5 mph - N/A   Partly Cloudy
3:50 PM 98.6 °F 99.4 °F 60.8 °F 29% 29.50 in 6.2 mi SSW 9.2 mph - N/A   Partly Cloudy
4:20 PM 98.6 °F 99.4 °F 60.8 °F 29% 29.50 in 6.2 mi SSW 8.1 mph - N/A   Partly Cloudy
4:50 PM 98.6 °F 99.4 °F 60.8 °F 29% 29.50 in 6.2 mi SSW 6.9 mph - N/A   Scattered Clouds
5:20 PM 96.8 °F 98.0 °F 62.6 °F 32% 29.47 in 6.2 mi SSW 6.9 mph - N/A   Scattered Clouds
5:50 PM 95.0 °F 94.4 °F 59.0 °F 30% 29.47 in 6.2 mi SSW 8.1 mph - N/A   Scattered Clouds
6:20 PM 93.2 °F 92.6 °F 59.0 °F 32% 29.50 in 6.2 mi SSW 8.1 mph - N/A   Scattered Clouds
6:50 PM 91.4 °F 90.7 °F 59.0 °F 34% 29.50 in 6.2 mi SSW 8.1 mph - N/A   Scattered Clouds
7:20 PM 87.8 °F 87.6 °F 60.8 °F 40% 29.50 in 6.2 mi SSW 5.8 mph - N/A   Scattered Clouds
7:50 PM 91.4 °F - 51.8 °F 26% 29.50 in 6.2 mi Variable 3.5 mph - N/A   Scattered Clouds
8:20 PM 93.2 °F - 50.0 °F 23% 29.53 in 6.2 mi Variable 1.2 mph - N/A   Scattered Clouds
8:50 PM 91.4 °F - 51.8 °F 26% 29.53 in 6.2 mi Variable 4.6 mph - N/A   Mostly Cloudy
9:20 PM 87.8 °F 86.1 °F 55.4 °F 33% 29.53 in 6.2 mi SSW 8.1 mph - N/A   Mostly Cloudy
9:50 PM 86.0 °F 84.5 °F 55.4 °F 35% 29.53 in 6.2 mi SSW 5.8 mph - N/A   Mostly Cloudy
10:20 PM 86.0 °F 84.5 °F 55.4 °F 35% 29.53 in 6.2 mi Variable 2.3 mph - N/A   Mostly Cloudy
10:50 PM 86.0 °F 84.2 °F 53.6 °F 33% 29.53 in 6.2 mi SSE 5.8 mph - N/A   Mostly Cloudy
11:20 PM 84.2 °F 83.0 °F 55.4 °F 37% 29.56 in 6.2 mi South 4.6 mph - N/A   Mostly Cloudy
11:50 PM 84.2 °F 82.8 °F 53.6 °F 35% 29.56 in 6.2 mi SSE 3.5 mph - N/A   Mostly Cloudy